User: anonymous   Login
Location: Huntington Beach
(33.6600°N, 117.9980°W)
Time: 12:22:02
(UTC-07:00)
Language:

SL-16 R/B - Orbit

View from above orbital plane
View from above orbital plane
View from above satellite
View from above satellite

Ground track
Ground track

The orbit data is extracted from the following two-line orbital elements,

1 28353U 04021B   16121.77425601 -.00000296 +00000-0 -13052-3 0  9994
2 28353 071.0002 223.3450 0002941 120.7188 239.4224 14.14171478613841
Epoch (UTC): 30 April 2016 18:34:55
Eccentricity: 0.0002941
inclination: 71.0002°
perigee height: 843 km
apogee height: 847 km
right ascension of ascending node: 223.3450°
argument of perigee: 120.7188°
revolutions per day: 14.14171478
mean anomaly at epoch: 239.4224°
orbit number at epoch: 61384

The dashed part of the orbit path shows where the satellite is in the earth's shadow,  

DLR